This is the latest recevied weather packets stored in our database for station/object N3AVN. If no packets are shown the sender has not sent any weather packets the latest 10 day(s).
| Time | Temp. | Humidity | Pressure | Rain* | Wind** | Luminosity | Snow |
|---|---|---|---|---|---|---|---|
| 1777542027 | 8.89° C | 99% | 1006.5 hPa | 1.27 mm | - | 0 W/m² | - |
| 1777541725 | 8.89° C | 99% | 1006.4 hPa | 1.27 mm | - | 0 W/m² | - |
| 1777541422 | 8.89° C | 99% | 1006.5 hPa | 1.27 mm | - | 0 W/m² | - |
| 1777541118 | 8.89° C | 99% | 1006.4 hPa | 1.27 mm | - | 0 W/m² | - |
| 1777540816 | 8.89° C | 99% | 1006.5 hPa | 0.51 mm | - | 0 W/m² | - |
| 1777540513 | 8.89° C | 99% | 1006.6 hPa | 0.51 mm | - | 0 W/m² | - |
| 1777540209 | 8.89° C | 99% | 1006.6 hPa | 0 mm | - | 0 W/m² | - |
| 1777539904 | 8.89° C | 99% | 1006.8 hPa | 0.51 mm | - | 0 W/m² | - |
| 1777539601 | 8.89° C | 99% | 1006.8 hPa | 0 mm | - | 0 W/m² | - |
| 1777539296 | 8.89° C | 99% | 1006.8 hPa | 0.51 mm | - | 0 W/m² | - |
| 1777538994 | 8.89° C | 99% | 1006.9 hPa | 1.78 mm | - | 0 W/m² | - |
| 1777538689 | 8.89° C | 99% | 1006.9 hPa | 1.27 mm | - | 0 W/m² | - |
| 1777538385 | 8.89° C | 99% | 1006.9 hPa | 0.51 mm | - | 0 W/m² | - |
| 1777538081 | 8.89° C | 99% | 1007 hPa | 0 mm | - | 0 W/m² | - |
| 1777537775 | 8.89° C | 99% | 1006.9 hPa | 0.51 mm | - | 0 W/m² | - |
| 1777537472 | 8.89° C | 99% | 1006.9 hPa | 1.27 mm | - | 0 W/m² | - |
| 1777537169 | 8.89° C | 99% | 1006.8 hPa | 1.27 mm | - | 0 W/m² | - |
| 1777536864 | 8.89° C | 99% | 1007 hPa | 1.27 mm | - | 0 W/m² | - |
| 1777536563 | 8.89° C | 99% | 1007.1 hPa | 1.27 mm | - | 0 W/m² | - |
| 1777536259 | 8.89° C | 98% | 1007.2 hPa | 0.51 mm | - | 0 W/m² | - |
| 1777535954 | 8.89° C | 98% | 1007.3 hPa | 0 mm | - | 0 W/m² | - |
| 1777535651 | 8.89° C | 98% | 1007.3 hPa | 0.51 mm | - | 0 W/m² | - |
| 1777535348 | 8.89° C | 98% | 1007.2 hPa | 0.51 mm | - | 0 W/m² | - |
| 1777535045 | 8.89° C | 98% | 1007.3 hPa | 0 mm | - | 0 W/m² | - |
| 1777534743 | 8.89° C | 98% | 1007.1 hPa | 0.51 mm | - | 0 W/m² | - |
* Rain latest hour (hover to see other rain measurements)
** Current wind speed in m/s (hover to see current wind gust speed)